| time (UTC) | temp F | wind direction | speed knots | gust knots | rain 1hr in | rain 24hr in | rain mn in | humidity % | barometer mb |
| 20260505195127 | 64 | 180 | 0.0 | 1.7 | 0.00 | 0.00 | 0.00 | 63 | 1016.6 |
| 20260505194617 | 64 | 135 | 0.9 | 3.5 | 0.00 | 0.00 | 0.00 | 63 | 1016.6 |
| 20260505194106 | 64 | 135 | 0.0 | 3.5 | 0.00 | 0.00 | 0.00 | 62 | 1016.7 |
| 20260505193556 | 64 | 180 | 0.0 | 3.5 | 0.00 | 0.00 | 0.00 | 62 | 1016.7 |
| 20260505193048 | 64 | 135 | 1.7 | 3.5 | 0.00 | 0.00 | 0.00 | 61 | 1016.7 |
| 20260505192536 | 64 | 135 | 1.7 | 3.5 | 0.00 | 0.00 | 0.00 | 62 | 1016.8 |
| 20260505192026 | 65 | 135 | 1.7 | 3.5 | 0.00 | 0.00 | 0.00 | 62 | 1016.7 |
| 20260505191516 | 64 | 135 | 1.7 | 5.2 | 0.00 | 0.00 | 0.00 | 62 | 1016.7 |
| 20260505191006 | 64 | 135 | 0.9 | 5.2 | 0.00 | 0.00 | 0.00 | 61 | 1016.7 |
| 20260505190940 | 65 | 135 | 1.7 | 3.5 | 0.00 | 0.00 | 0.00 | 63 | 1016.7 |
| 20260505185947 | 64 | 135 | 1.7 | 3.5 | 0.00 | 0.00 | 0.00 | 63 | 1016.5 |
| 20260505185435 | 64 | 135 | 0.9 | 3.5 | 0.00 | 0.00 | 0.00 | 66 | 1016.6 |
| 20260505184926 | 62 | 135 | 0.0 | 3.5 | 0.00 | 0.00 | 0.00 | 69 | 1016.7 |
| 20260505184415 | 61 | 135 | 1.7 | 3.5 | 0.00 | 0.00 | 0.00 | 69 | 1016.8 |
| 20260505183906 | 61 | 135 | 0.9 | 3.5 | 0.00 | 0.00 | 0.00 | 69 | 1016.8 |
| 20260505183355 | 61 | 135 | 1.7 | 3.5 | 0.00 | 0.00 | 0.00 | 69 | 1016.8 |
| 20260505182844 | 61 | 135 | 0.9 | 3.5 | 0.00 | 0.00 | 0.00 | 69 | 1016.8 |
| 20260505182335 | 61 | 135 | 1.7 | 3.5 | 0.00 | 0.00 | 0.00 | 69 | 1016.7 |
| 20260505181824 | 61 | 135 | 0.9 | 3.5 | 0.00 | 0.00 | 0.00 | 69 | 1016.7 |
| 20260505181316 | 61 | 135 | 1.7 | 3.5 | 0.00 | 0.00 | 0.00 | 69 | 1016.7 |
| 20260505180804 | 61 | 180 | 0.9 | 3.5 | 0.00 | 0.00 | 0.00 | 70 | 1016.6 |
| 20260505180254 | 61 | 135 | 1.7 | 3.5 | 0.00 | 0.00 | 0.00 | 69 | 1016.7 |
| 20260505175744 | 61 | 135 | 2.6 | 3.5 | 0.00 | 0.00 | 0.00 | 70 | 1016.7 |
| 20260505175451 | 61 | 180 | 1.7 | 4.3 | 0.00 | 0.00 | 0.00 | 70 | 1016.7 |
| 20260505174725 | 61 | 180 | 1.7 | 4.3 | 0.00 | 0.00 | 0.00 | 71 | 1016.6 |
| 20260505174435 | 61 | 135 | 0.0 | 3.5 | 0.00 | 0.00 | 0.00 | 71 | 1016.6 |
| 20260505173704 | 60 | 158 | 0.9 | 4.3 | 0.00 | 0.00 | 0.00 | 71 | 1016.7 |
| 20260505173153 | 60 | 135 | 1.7 | 4.3 | 0.00 | 0.00 | 0.00 | 71 | 1016.6 |
| 20260505172643 | 60 | 135 | 1.7 | 4.3 | 0.00 | 0.00 | 0.00 | 71 | 1016.5 |
| 20260505172134 | 60 | 135 | 1.7 | 4.3 | 0.00 | 0.00 | 0.00 | 71 | 1016.6 |
| 20260505171844 | 60 | 135 | 0.9 | 4.3 | 0.00 | 0.00 | 0.00 | 71 | 1016.4 |
| 20260505171335 | 60 | 135 | 1.7 | 5.2 | 0.00 | 0.00 | 0.00 | 71 | 1016.3 |
| 20260505170824 | 60 | 180 | 2.6 | 5.2 | 0.00 | 0.00 | 0.00 | 71 | 1016.4 |
| 20260505170052 | 60 | 135 | 0.9 | 5.2 | 0.00 | 0.00 | 0.00 | 71 | 1016.2 |
| 20260505165545 | 60 | 135 | 2.6 | 5.2 | 0.00 | 0.00 | 0.00 | 71 | 1016.2 |
| 20260505165033 | 60 | 135 | 0.9 | 5.2 | 0.00 | 0.00 | 0.00 | 71 | 1016.3 |
| 20260505164521 | 60 | 180 | 1.7 | 3.5 | 0.00 | 0.00 | 0.00 | 72 | 1016.3 |
| 20260505164012 | 60 | 135 | 0.9 | 6.1 | 0.00 | 0.00 | 0.00 | 72 | 1016.3 |
| 20260505163726 | 60 | 135 | 3.5 | 6.1 | 0.00 | 0.00 | 0.00 | 72 | 1016.2 |
| 20260505163437 | 60 | 135 | 0.0 | 2.6 | 0.00 | 0.00 | 0.00 | 73 | 1016.2 |
| 20260505162703 | 60 | 135 | 0.9 | 2.6 | 0.00 | 0.00 | 0.00 | 73 | 1016.2 |
| 20260505161932 | 60 | 135 | 0.0 | 2.6 | 0.00 | 0.00 | 0.00 | 74 | 1016.2 |
| 20260505161421 | 59 | 135 | 0.9 | 2.6 | 0.00 | 0.00 | 0.00 | 75 | 1016.2 |
| 20260505160910 | 59 | 158 | 0.0 | 1.7 | 0.00 | 0.00 | 0.00 | 77 | 1016.2 |
| 20260505160402 | 58 | 135 | 0.0 | 3.5 | 0.00 | 0.00 | 0.00 | 78 | 1016.2 |
| 20260505153259 | 57 | 135 | 1.7 | 3.5 | 0.00 | 0.00 | 0.00 | 82 | 1016.2 |
| 20260505152749 | 57 | 180 | 0.0 | 2.6 | 0.00 | 0.00 | 0.00 | 82 | 1016.1 |
| 20260505152458 | 56 | 180 | 0.0 | 4.3 | 0.00 | 0.00 | 0.00 | 82 | 1016.1 |
| 20260505151729 | 56 | 158 | 0.9 | 4.3 | 0.00 | 0.00 | 0.00 | 82 | 1016.1 |
| 20260505151220 | 56 | 135 | 1.7 | 3.5 | 0.00 | 0.00 | 0.00 | 82 | 1015.9 |
| 20260505150710 | 56 | 135 | 0.9 | 3.5 | 0.00 | 0.00 | 0.00 | 82 | 1016.1 |
| 20260505150435 | 56 | 135 | 1.7 | 3.5 | 0.00 | 0.00 | 0.00 | 82 | 1016.0 |
| 20260505140507 | 55 | 180 | 0.0 | 4.3 | 0.00 | 0.00 | 0.00 | 84 | 1015.3 |
| 20260505140214 | 55 | 180 | 0.0 | 3.5 | 0.00 | 0.00 | 0.00 | 84 | 1015.3 |
| 20260505130307 | 55 | 225 | 0.9 | 2.6 | 0.00 | 0.00 | 0.00 | 83 | 1015.2 |
| 20260505124954 | 55 | 225 | 0.0 | 3.5 | 0.00 | 0.00 | 0.00 | 84 | 1015.0 |
| 20260505124225 | 55 | 225 | 1.7 | 3.5 | 0.00 | 0.00 | 0.00 | 84 | 1015.0 |
| 20260505124207 | 55 | 225 | 0.9 | 1.7 | 0.00 | 0.00 | 0.00 | 84 | 1014.9 |
| 20260505123420 | 55 | 225 | 0.0 | 2.6 | 0.00 | 0.00 | 0.00 | 83 | 1014.9 |
| 20260505122654 | 55 | 225 | 0.9 | 2.6 | 0.00 | 0.00 | 0.00 | 83 | 1015.0 |
| 20260505122145 | 55 | 225 | 1.7 | 1.7 | 0.00 | 0.00 | 0.00 | 83 | 1014.9 |
| 20260505121635 | 55 | 225 | 0.0 | 1.7 | 0.00 | 0.00 | 0.00 | 83 | 1015.0 |
| 20260505121125 | 55 | 225 | 0.0 | 1.7 | 0.00 | 0.00 | 0.00 | 83 | 1014.8 |
| 20260505120613 | 55 | 225 | 0.9 | 1.7 | 0.00 | 0.00 | 0.00 | 83 | 1014.9 |
| 20260505120103 | 55 | 225 | 0.0 | 0.9 | 0.00 | 0.00 | 0.00 | 82 | 1015.0 |
| 20260505115553 | 55 | 225 | 0.0 | 0.9 | 0.00 | 0.00 | 0.00 | 82 | 1014.8 |
| 20260505115045 | 55 | 225 | 0.0 | 0.9 | 0.00 | 0.00 | 0.00 | 82 | 1014.9 |
| 20260505114534 | 55 | 225 | 0.0 | 0.9 | 0.00 | 0.00 | 0.00 | 82 | 1014.7 |
| 20260505114023 | 55 | 225 | 0.0 | 0.9 | 0.00 | 0.00 | 0.00 | 82 | 1014.8 |
| 20260505113512 | 55 | 225 | 0.0 | 0.9 | 0.00 | 0.00 | 0.00 | 82 | 1014.8 |
| 20260505113003 | 55 | 225 | 0.0 | 2.6 | 0.00 | 0.00 | 0.00 | 82 | 1015.0 |
| 20260505112453 | 55 | 225 | 0.0 | 2.6 | 0.00 | 0.00 | 0.00 | 82 | 1014.9 |
| 20260505111944 | 55 | 225 | 0.0 | 3.5 | 0.00 | 0.00 | 0.00 | 82 | 1014.8 |
| 20260505111433 | 55 | 225 | 0.9 | 3.5 | 0.00 | 0.00 | 0.00 | 82 | 1014.9 |
| 20260505110922 | 55 | 225 | 1.7 | 1.7 | 0.00 | 0.00 | 0.00 | 82 | 1014.9 |
| 20260505110412 | 55 | 225 | 0.0 | 0.9 | 0.00 | 0.00 | 0.00 | 82 | 1014.7 |
| 20260505101740 | 55 | 225 | 0.0 | 1.7 | 0.00 | 0.00 | 0.00 | 82 | 1014.4 |
| 20260505101231 | 55 | 225 | 0.0 | 1.7 | 0.00 | 0.00 | 0.00 | 81 | 1014.3 |
| 20260505100720 | 55 | 225 | 0.0 | 1.7 | 0.00 | 0.00 | 0.00 | 81 | 1014.4 |
| 20260505100211 | 55 | 225 | 0.0 | 1.7 | 0.00 | 0.00 | 0.00 | 81 | 1014.3 |
| 20260505095700 | 55 | 225 | 0.0 | 1.7 | 0.00 | 0.00 | 0.00 | 81 | 1014.4 |
| 20260505095414 | 55 | 225 | 0.0 | 0.9 | 0.00 | 0.00 | 0.00 | 80 | 1014.4 |
| 20260505094640 | 55 | 225 | 0.0 | 0.9 | 0.00 | 0.00 | 0.00 | 81 | 1014.4 |
| 20260505094130 | 56 | 225 | 0.0 | 0.9 | 0.00 | 0.00 | 0.00 | 81 | 1014.3 |
| 20260505093620 | 56 | 225 | 0.0 | 3.5 | 0.00 | 0.00 | 0.00 | 81 | 1014.2 |
| 20260505093109 | 56 | 225 | 0.9 | 3.5 | 0.00 | 0.00 | 0.00 | 81 | 1014.2 |
| 20260505092559 | 56 | 225 | 0.0 | 0.9 | 0.00 | 0.00 | 0.00 | 80 | 1014.1 |
| 20260505092314 | 56 | 225 | 0.0 | 1.7 | 0.00 | 0.00 | 0.00 | 80 | 1014.0 |
| 20260505091538 | 56 | 225 | 0.0 | 1.7 | 0.00 | 0.00 | 0.00 | 80 | 1014.0 |
| 20260505091258 | 56 | 225 | 0.0 | 0.0 | 0.00 | 0.00 | 0.00 | 79 | 1014.1 |
| 20260505090519 | 56 | 225 | 0.0 | 0.9 | 0.00 | 0.00 | 0.00 | 79 | 1013.9 |
| 20260505090230 | 56 | 225 | 0.0 | 2.6 | 0.00 | 0.00 | 0.00 | 78 | 1013.8 |
| 20260505085458 | 56 | 225 | 0.0 | 2.6 | 0.00 | 0.00 | 0.00 | 78 | 1013.8 |
| 20260505084947 | 57 | 225 | 0.0 | 2.6 | 0.00 | 0.00 | 0.00 | 78 | 1013.9 |
| 20260505084439 | 57 | 225 | 0.0 | 3.5 | 0.00 | 0.00 | 0.00 | 79 | 1013.9 |
| 20260505084145 | 57 | 225 | 1.7 | 3.5 | 0.00 | 0.00 | 0.00 | 79 | 1013.9 |
| 20260505083417 | 57 | 225 | 0.0 | 3.5 | 0.00 | 0.00 | 0.00 | 78 | 1013.9 |
| 20260505082907 | 57 | 225 | 0.0 | 1.7 | 0.00 | 0.00 | 0.00 | 78 | 1013.7 |
| 20260505082618 | 57 | 225 | 0.0 | 1.7 | 0.00 | 0.00 | 0.00 | 77 | 1013.7 |
| 20260505081848 | 57 | 225 | 0.0 | 1.7 | 0.00 | 0.00 | 0.00 | 76 | 1013.8 |
| 20260505081336 | 58 | 225 | 0.0 | 1.7 | 0.00 | 0.00 | 0.00 | 76 | 1013.7 |
| 20260505080827 | 58 | 225 | 0.0 | 1.7 | 0.00 | 0.00 | 0.00 | 76 | 1013.7 |
| 20260505080317 | 58 | 225 | 0.0 | 0.9 | 0.00 | 0.00 | 0.00 | 76 | 1013.7 |
| 20260505075806 | 58 | 225 | 0.0 | 0.9 | 0.00 | 0.00 | 0.00 | 76 | 1013.7 |
| 20260505075257 | 58 | 225 | 0.0 | 0.9 | 0.00 | 0.00 | 0.00 | 76 | 1013.7 |
| 20260505074746 | 58 | 225 | 0.0 | 0.9 | 0.00 | 0.00 | 0.00 | 76 | 1013.6 |
| 20260505074237 | 59 | 225 | 0.0 | 0.0 | 0.00 | 0.00 | 0.00 | 76 | 1013.4 |
| 20260505073725 | 59 | 225 | 0.0 | 0.9 | 0.00 | 0.00 | 0.00 | 76 | 1013.3 |
| 20260505073215 | 59 | 225 | 0.0 | 1.7 | 0.00 | 0.00 | 0.00 | 76 | 1013.3 |
| 20260505072706 | 59 | 225 | 0.0 | 1.7 | 0.00 | 0.00 | 0.00 | 76 | 1013.2 |
| 20260505072417 | 59 | 225 | 0.0 | 1.7 | 0.00 | 0.00 | 0.00 | 75 | 1013.3 |
| 20260505071644 | 59 | 225 | 0.0 | 1.7 | 0.00 | 0.00 | 0.00 | 74 | 1013.0 |
| 20260505071135 | 59 | 225 | 0.9 | 1.7 | 0.00 | 0.00 | 0.00 | 74 | 1013.2 |
| 20260505070625 | 60 | 225 | 0.0 | 0.9 | 0.00 | 0.00 | 0.00 | 74 | 1013.1 |
| 20260505070115 | 60 | 225 | 0.0 | 3.5 | 0.00 | 0.00 | 0.00 | 74 | 1013.0 |
| 20260505065604 | 60 | 225 | 0.0 | 3.5 | 0.00 | 0.00 | 0.00 | 74 | 1012.8 |
| 20260505065054 | 60 | 225 | 0.0 | 2.6 | 0.00 | 0.00 | 0.00 | 74 | 1013.0 |
| 20260505064544 | 60 | 225 | 1.7 | 2.6 | 0.00 | 0.00 | 0.00 | 74 | 1012.7 |
| 20260505064034 | 60 | 225 | 0.0 | 2.6 | 0.00 | 0.00 | 0.00 | 74 | 1012.7 |
| 20260505063525 | 60 | 225 | 0.0 | 2.6 | 0.00 | 0.00 | 0.00 | 75 | 1012.4 |
| 20260505063234 | 60 | 225 | 0.0 | 3.5 | 0.00 | 0.00 | 0.00 | 75 | 1012.5 |
| 20260505062503 | 60 | 225 | 0.0 | 3.5 | 0.00 | 0.00 | 0.00 | 75 | 1012.5 |
| 20260505062436 | 60 | 225 | 0.0 | 1.7 | 0.00 | 0.00 | 0.00 | 75 | 1012.4 |
| 20260505061702 | 60 | 225 | 0.0 | 1.7 | 0.00 | 0.00 | 0.00 | 74 | 1012.3 |
| 20260505060935 | 60 | 225 | 0.0 | 0.9 | 0.00 | 0.00 | 0.00 | 73 | 1012.3 |
| 20260505060423 | 61 | 225 | 0.0 | 0.9 | 0.00 | 0.00 | 0.00 | 71 | 1012.1 |
| 20260505055912 | 61 | 225 | 0.0 | 0.0 | 0.00 | 0.00 | 0.00 | 71 | 1012.2 |
| 20260505055403 | 61 | 225 | 0.0 | 0.0 | 0.00 | 0.00 | 0.00 | 71 | 1012.4 |
| 20260505054853 | 62 | 225 | 0.0 | 0.0 | 0.00 | 0.00 | 0.00 | 70 | 1012.4 |
| 20260505054344 | 63 | 225 | 0.0 | 1.7 | 0.00 | 0.00 | 0.00 | 69 | 1012.2 |
| 20260505053832 | 63 | 225 | 0.0 | 1.7 | 0.00 | 0.00 | 0.00 | 69 | 1012.2 |
| 20260505053321 | 63 | 225 | 0.0 | 1.7 | 0.00 | 0.00 | 0.00 | 69 | 1012.2 |
| 20260505052812 | 63 | 225 | 0.0 | 0.0 | 0.00 | 0.00 | 0.00 | 69 | 1012.2 |
| 20260505052301 | 63 | 225 | 0.0 | 0.0 | 0.00 | 0.00 | 0.00 | 68 | 1012.2 |
| 20260505051753 | 63 | 225 | 0.0 | 1.7 | 0.00 | 0.00 | 0.00 | 68 | 1012.0 |
| 20260505051500 | 63 | 225 | 0.0 | 1.7 | 0.00 | 0.00 | 0.00 | 68 | 1012.1 |
| 20260505050731 | 64 | 225 | 0.0 | 0.9 | 0.00 | 0.00 | 0.00 | 66 | 1011.9 |
| 20260505050221 | 65 | 225 | 0.0 | 0.9 | 0.00 | 0.00 | 0.00 | 65 | 1011.9 |
| 20260505041550 | 68 | 180 | 0.9 | 2.6 | 0.00 | 0.00 | 0.00 | 65 | 1011.3 |
| 20260505041039 | 68 | 180 | 0.0 | 1.7 | 0.00 | 0.00 | 0.00 | 66 | 1011.1 |
| 20260505040759 | 68 | 180 | 0.0 | 1.7 | 0.00 | 0.00 | 0.00 | 66 | 1011.0 |
| 20260505040023 | 68 | 180 | 0.0 | 1.7 | 0.00 | 0.00 | 0.00 | 66 | 1010.9 |
| 20260505035727 | 68 | 180 | 0.0 | 1.7 | 0.00 | 0.00 | 0.00 | 65 | 1010.9 |
| 20260505035225 | 69 | 135 | 0.0 | 7.0 | 0.00 | 0.00 | 0.00 | 65 | 1010.9 |
| 20260505034706 | 69 | 180 | 0.9 | 7.0 | 0.00 | 0.00 | 0.00 | 65 | 1010.6 |
| 20260505033939 | 69 | 135 | 0.9 | 4.3 | 0.00 | 0.00 | 0.00 | 65 | 1010.4 |
| 20260505033429 | 69 | 180 | 1.7 | 3.5 | 0.00 | 0.00 | 0.00 | 65 | 1010.3 |
| 20260505032918 | 69 | 135 | 0.9 | 2.6 | 0.00 | 0.00 | 0.00 | 64 | 1010.3 |
| 20260505032409 | 69 | 135 | 0.0 | 3.5 | 0.00 | 0.00 | 0.00 | 64 | 1010.3 |
| 20260505031857 | 70 | 135 | 1.7 | 4.3 | 0.00 | 0.00 | 0.00 | 62 | 1010.2 |
| 20260505031348 | 70 | 180 | 0.0 | 6.1 | 0.00 | 0.00 | 0.00 | 62 | 1010.1 |
| 20260505030839 | 70 | 135 | 3.5 | 6.1 | 0.00 | 0.00 | 0.00 | 62 | 1010.2 |
| 20260505030327 | 70 | 135 | 1.7 | 5.2 | 0.00 | 0.00 | 0.00 | 61 | 1010.0 |
| 20260505025818 | 71 | 135 | 0.9 | 6.1 | 0.00 | 0.00 | 0.00 | 61 | 1010.1 |
| 20260505025307 | 71 | 180 | 1.7 | 7.0 | 0.00 | 0.00 | 0.00 | 61 | 1009.9 |
| 20260505024757 | 71 | 135 | 3.5 | 7.0 | 0.00 | 0.00 | 0.00 | 61 | 1009.8 |
| 20260505024248 | 71 | 135 | 0.9 | 5.2 | 0.00 | 0.00 | 0.00 | 60 | 1009.8 |
| 20260505023736 | 71 | 135 | 0.9 | 5.2 | 0.00 | 0.00 | 0.00 | 60 | 1009.9 |
| 20260505023227 | 71 | 135 | 0.0 | 7.0 | 0.00 | 0.00 | 0.00 | 60 | 1009.9 |
| 20260505022717 | 71 | 135 | 1.7 | 7.0 | 0.00 | 0.00 | 0.00 | 60 | 1009.9 |
| 20260505022206 | 72 | 180 | 1.7 | 7.0 | 0.00 | 0.00 | 0.00 | 58 | 1009.8 |
| 20260505021658 | 72 | 135 | 3.5 | 7.0 | 0.00 | 0.00 | 0.00 | 58 | 1010.1 |
| 20260505021146 | 72 | 180 | 0.0 | 5.2 | 0.00 | 0.00 | 0.00 | 58 | 1010.0 |
| 20260505020636 | 72 | 135 | 0.0 | 6.1 | 0.00 | 0.00 | 0.00 | 57 | 1009.9 |
| 20260505020126 | 73 | 180 | 2.6 | 6.1 | 0.00 | 0.00 | 0.00 | 57 | 1009.9 |
| 20260505015615 | 73 | 180 | 1.7 | 7.0 | 0.00 | 0.00 | 0.00 | 57 | 1009.9 |
| 20260505015107 | 73 | 158 | 3.5 | 7.8 | 0.00 | 0.00 | 0.00 | 56 | 1009.9 |
| 20260505014556 | 73 | 180 | 3.5 | 7.8 | 0.00 | 0.00 | 0.00 | 56 | 1009.7 |
| 20260505014045 | 73 | 135 | 1.7 | 7.0 | 0.00 | 0.00 | 0.00 | 56 | 1009.9 |
| 20260505013535 | 73 | 180 | 4.3 | 7.0 | 0.00 | 0.00 | 0.00 | 55 | 1009.9 |
| 20260505013025 | 73 | 135 | 1.7 | 5.2 | 0.00 | 0.00 | 0.00 | 55 | 1010.2 |
| 20260505012517 | 73 | 135 | 2.6 | 6.1 | 0.00 | 0.00 | 0.00 | 55 | 1010.1 |
| 20260505012221 | 73 | 135 | 0.0 | 7.0 | 0.00 | 0.00 | 0.00 | 55 | 1010.2 |
| 20260505011454 | 73 | 180 | 3.5 | 7.0 | 0.00 | 0.00 | 0.00 | 54 | 1010.2 |
| 20260505010945 | 73 | 180 | 4.3 | 7.0 | 0.00 | 0.00 | 0.00 | 55 | 1010.0 |
| 20260505010434 | 73 | 135 | 1.7 | 7.0 | 0.00 | 0.00 | 0.00 | 55 | 1010.2 |
| 20260505005927 | 73 | 135 | 1.7 | 6.1 | 0.00 | 0.00 | 0.00 | 55 | 1010.2 |
| 20260505005414 | 73 | 180 | 2.6 | 6.1 | 0.00 | 0.00 | 0.00 | 55 | 1010.1 |
| 20260505005123 | 73 | 135 | 2.6 | 5.2 | 0.00 | 0.00 | 0.00 | 55 | 1010.3 |
| 20260505004353 | 73 | 135 | 1.7 | 7.0 | 0.00 | 0.00 | 0.00 | 55 | 1010.3 |
| 20260505003844 | 73 | 180 | 3.5 | 7.8 | 0.00 | 0.00 | 0.00 | 54 | 1010.2 |
| 20260505003335 | 73 | 180 | 0.9 | 7.8 | 0.00 | 0.00 | 0.00 | 53 | 1010.3 |
| 20260505002823 | 73 | 180 | 1.7 | 7.8 | 0.00 | 0.00 | 0.00 | 54 | 1010.3 |
| 20260505002537 | 73 | 158 | 5.2 | 7.8 | 0.00 | 0.00 | 0.00 | 54 | 1010.5 |
| 20260505001803 | 73 | 135 | 3.5 | 6.1 | 0.00 | 0.00 | 0.00 | 54 | 1010.4 |
| 20260505001253 | 74 | 180 | 1.7 | 6.1 | 0.00 | 0.00 | 0.00 | 53 | 1010.4 |
| 20260505000744 | 74 | 135 | 1.7 | 5.2 | 0.00 | 0.00 | 0.00 | 53 | 1010.5 |
| 20260505000233 | 74 | 180 | 0.0 | 7.0 | 0.00 | 0.00 | 0.00 | 54 | 1010.6 |
| 20260504235951 | 74 | 180 | 1.7 | 7.0 | 0.00 | 0.00 | 0.00 | 53 | 1010.4 |
| 20260504235213 | 74 | 180 | 2.6 | 7.0 | 0.00 | 0.00 | 0.00 | 53 | 1010.6 |
| 20260504234702 | 74 | 180 | 2.6 | 7.0 | 0.00 | 0.00 | 0.00 | 53 | 1010.6 |
| 20260504234153 | 73 | 158 | 4.3 | 7.0 | 0.00 | 0.00 | 0.00 | 53 | 1010.4 |
| 20260504233642 | 74 | 135 | 1.7 | 7.0 | 0.00 | 0.00 | 0.00 | 53 | 1010.4 |
| 20260504233132 | 74 | 180 | 1.7 | 8.7 | 0.00 | 0.00 | 0.00 | 53 | 1010.6 |
| 20260504232846 | 73 | 135 | 1.7 | 8.7 | 0.00 | 0.00 | 0.00 | 51 | 1010.6 |
| 20260504232111 | 73 | 180 | 0.0 | 7.0 | 0.00 | 0.00 | 0.00 | 51 | 1010.8 |
| 20260504231602 | 73 | 158 | 3.5 | 7.0 | 0.00 | 0.00 | 0.00 | 51 | 1010.9 |
| 20260504231052 | 73 | 135 | 0.0 | 6.1 | 0.00 | 0.00 | 0.00 | 51 | 1010.8 |
| 20260504230544 | 73 | 158 | 1.7 | 6.1 | 0.00 | 0.00 | 0.00 | 51 | 1010.8 |
| 20260504230030 | 73 | 135 | 3.5 | 7.0 | 0.00 | 0.00 | 0.00 | 50 | 1011.0 |
| 20260504225742 | 73 | 135 | 2.6 | 7.0 | 0.00 | 0.00 | 0.00 | 50 | 1011.1 |
| 20260504225011 | 73 | 135 | 0.0 | 6.1 | 0.00 | 0.00 | 0.00 | 50 | 1011.2 |
| 20260504224500 | 72 | 135 | 3.5 | 6.1 | 0.00 | 0.00 | 0.00 | 50 | 1011.2 |
| 20260504223950 | 72 | 270 | 0.9 | 6.1 | 0.00 | 0.00 | 0.00 | 50 | 1011.2 |
| 20260504223656 | 73 | 225 | 0.9 | 6.1 | 0.00 | 0.00 | 0.00 | 49 | 1011.4 |
| 20260504222931 | 73 | 180 | 1.7 | 6.1 | 0.00 | 0.00 | 0.00 | 50 | 1011.4 |
| 20260504222422 | 73 | 225 | 0.0 | 3.5 | 0.00 | 0.00 | 0.00 | 50 | 1011.6 |
| 20260504221910 | 73 | 225 | 1.7 | 3.5 | 0.00 | 0.00 | 0.00 | 51 | 1011.6 |
| 20260504221359 | 72 | 225 | 0.9 | 6.1 | 0.00 | 0.00 | 0.00 | 51 | 1011.5 |
| 20260504220849 | 72 | 270 | 0.9 | 6.1 | 0.00 | 0.00 | 0.00 | 50 | 1011.5 |
| 20260504220339 | 72 | 180 | 0.0 | 7.0 | 0.00 | 0.00 | 0.00 | 51 | 1011.5 |
| 20260504215831 | 72 | 135 | 3.5 | 7.0 | 0.00 | 0.00 | 0.00 | 50 | 1011.8 |
| 20260504215319 | 72 | 135 | 1.7 | 4.3 | 0.00 | 0.00 | 0.00 | 50 | 1011.7 |
| 20260504215026 | 73 | 135 | 2.6 | 4.3 | 0.00 | 0.00 | 0.00 | 49 | 1011.9 |
| 20260504214258 | 74 | 135 | 0.0 | 4.3 | 0.00 | 0.00 | 0.00 | 51 | 1011.8 |
| 20260504213748 | 73 | 135 | 1.7 | 7.0 | 0.00 | 0.00 | 0.00 | 50 | 1012.0 |
| 20260504213240 | 73 | 135 | 4.3 | 7.0 | 0.00 | 0.00 | 0.00 | 50 | 1012.0 |
| 20260504212729 | 73 | 315 | 1.7 | 3.5 | 0.00 | 0.00 | 0.00 | 49 | 1012.2 |
| 20260504212218 | 73 | 180 | 0.9 | 7.0 | 0.00 | 0.00 | 0.00 | 50 | 1012.1 |
| 20260504211708 | 73 | 135 | 1.7 | 7.0 | 0.00 | 0.00 | 0.00 | 50 | 1012.4 |
| 20260504211158 | 73 | 135 | 1.7 | 7.0 | 0.00 | 0.00 | 0.00 | 50 | 1012.2 |
| 20260504210650 | 74 | 180 | 3.5 | 7.0 | 0.00 | 0.00 | 0.00 | 50 | 1012.1 |
| 20260504210138 | 73 | 248 | 0.9 | 5.2 | 0.00 | 0.00 | 0.00 | 51 | 1012.3 |
| 20260504205628 | 73 | 135 | 1.7 | 5.2 | 0.00 | 0.00 | 0.00 | 50 | 1012.5 |
| 20260504205117 | 73 | 158 | 1.7 | 4.3 | 0.00 | 0.00 | 0.00 | 50 | 1012.6 |
| 20260504204825 | 72 | 135 | 0.9 | 4.3 | 0.00 | 0.00 | 0.00 | 51 | 1012.8 |
| 20260504204607 | 72 | 135 | 0.9 | 4.3 | 0.00 | 0.00 | 0.00 | 51 | 1012.8 |
| 20260504204058 | 72 | 180 | 0.9 | 6.1 | 0.00 | 0.00 | 0.00 | 51 | 1012.8 |
| 20260504203548 | 71 | 135 | 1.7 | 7.0 | 0.00 | 0.00 | 0.00 | 53 | 1013.0 |
| 20260504203037 | 71 | 180 | 1.7 | 7.0 | 0.00 | 0.00 | 0.00 | 52 | 1013.0 |
| 20260504203008 | 71 | 225 | 0.9 | 3.5 | 0.00 | 0.00 | 0.00 | 54 | 1013.0 |
| 20260504202016 | 70 | 180 | 1.7 | 6.1 | 0.00 | 0.00 | 0.00 | 54 | 1013.0 |
| 20260504201725 | 69 | 180 | 1.7 | 7.0 | 0.00 | 0.00 | 0.00 | 55 | 1012.9 |
| 20260504200956 | 70 | 135 | 3.5 | 7.0 | 0.00 | 0.00 | 0.00 | 56 | 1013.2 |
| 20260504200447 | 69 | 180 | 1.7 | 7.0 | 0.00 | 0.00 | 0.00 | 56 | 1013.2 |
| 20260504195935 | 68 | 180 | 3.5 | 7.0 | 0.00 | 0.00 | 0.00 | 56 | 1013.2 |
| 20260504195426 | 68 | 180 | 2.6 | 7.8 | 0.00 | 0.00 | 0.00 | 57 | 1013.3 |
| 20260504195140 | 68 | 180 | 3.5 | 7.8 | 0.00 | 0.00 | 0.00 | 57 | 1013.3 |